DSCS II F-16

operational
NORAD ID: 13636 Int'l Des: 1982-106 Owner: AFSD/DCA Country: US
HEOCIRCULAR

关于 DSCS II F-16

正在加载描述...

实时位置

正在加载3D地球...

即将过境

高度历史

Altitude vs Time

uPlot chart will show altitude changes over time

两行轨道根数

1 13636U 82106A 26062.87591001 -.00000131 00000-0 00000-0 0 9999
2 13636 12.2592 327.6268 0003282 281.8496 248.5789 0.95090344103123
Epoch: Mar 3, 2026 • Age: 46 hours

当前状态

高度 37308.7 km
速度 3.02 km/s
星下点 1.65°N, 1.54°E
发射日期 Oct 30, 1982
运行时间 43.3 years
类型 other

技术详情

分类 Payload
质量 589.00 kg
干质量 550.00 kg
总质量 589.00 kg
长度 3.60 m
直径 2.70 m
跨度 4.90 m
形状 Cyl
制造商 TRW
平台类型 DSCS II
阶段状态 In Orbit
所有者/国家 AFSD/DCA/US

大型星座

Loading constellations...